Home > Weather > Herzogenrath > Past weeks

Flag for Germany Past Weather in Herzogenrath, North Rhine-Westphalia, Germany — Yesterday and Last 2 Weeks

Now
68 °F

Broken clouds.


Feels Like: 68 °F
Forecast: 55 / 63 °F
Wind: 9 mph from Southwest

Location: Geilenkirchen Airport

Current Time: Jul 1, 2016 at 3:38:01 PM

Latest Report: Jul 1, 2016 at 2:50 PM


Visibility: N/A

Pressure: 29.92 "Hg

Humidity: 73%

Dew Point: 59 °F

Location of HerzogenrathLocation

Past Weather in Herzogenrath — Graph

°F

Herzogenrath Temperature Yesterday

Maximum temperature yesterday: 70 °F (at 5:50 PM)
Minimum temperature yesterday: 59 °F (at 4:50 AM)
Average temperature yesterday: 64 °F

High & Low Weather Summary for the Past Weeks

 TemperatureHumidityPressure
High91 °F (Jun 23, 4:50 PM)100% (Jun 16, 10:50 PM)30.24 "Hg (Jun 16, 10:50 PM)
Low52 °F (Jun 20, 12:50 AM)46% (Jun 23, 5:50 PM)29.59 "Hg (Jun 16, 4:50 PM)
Average65 °F80%30.00 "Hg
* Reported Jun 16 1:50 PM — Jul 1 1:50 PM, Herzogenrath, Weather by CustomWeather, © 2016

Note: Actual official high and low records may vary slightly from our data, if they occured in-between our weather recording intervals... More about our weather records

Advertising

Herzogenrath Weather History for the Previous 24 Hours

Scroll right to see more
 ConditionsComfort  
Time TempWeatherWind HumidityBarometerVisibility
1:50 PM
Fri, Jul 1
68 °FBroken clouds.9 mph73%29.95 "HgN/A
12:50 PM66 °FDrizzle. Partly sunny.10 mph78%29.95 "HgN/A
11:50 AM64 °FDrizzle. Broken clouds.12 mph83%29.95 "HgN/A
10:50 AM66 °FDrizzle. Partly sunny.10 mph78%29.95 "HgN/A
9:50 AM66 °FBroken clouds.9 mph78%29.95 "HgN/A
8:50 AM66 °FBroken clouds.13 mph83%29.92 "HgN/A
7:50 AM64 °FScattered clouds.10 mph88%29.92 "HgN/A
6:50 AM64 °FPartly sunny.7 mph88%29.92 "HgN/A
5:50 AM63 °FPartly cloudy.7 mph94%29.92 "HgN/A
4:50 AM63 °FClear.5 mph94%29.92 "Hg10 mi
3:50 AM63 °FPartly cloudy.5 mph94%29.92 "HgN/A
2:50 AM64 °FPassing clouds.7 mph88%29.92 "HgN/A
1:50 AM64 °FClear.6 mph88%29.92 "Hg10 mi
12:50 AM63 °FClear.6 mph94%29.95 "Hg10 mi
11:50 PM
Thu, Jun 30
63 °FClear.7 mph94%29.95 "Hg10 mi
10:50 PM64 °FScattered clouds.7 mph88%29.95 "HgN/A
9:50 PM64 °FBroken clouds.7 mph88%29.92 "HgN/A
8:50 PM64 °FPartly sunny.7 mph94%29.92 "HgN/A
7:50 PM66 °FRain showers. Broken clouds.7 mph83%29.92 "Hg5 mi
6:50 PM68 °FPartly sunny.13 mph73%29.92 "HgN/A
5:50 PM70 °FPartly sunny.10 mph69%29.92 "HgN/A
4:50 PM68 °FScattered showers. Broken clouds.12 mph73%29.92 "HgN/A
3:50 PM68 °FPartly sunny.15 mph69%29.92 "HgN/A
Weather by CustomWeather, © 2016

See weather overviewHow to use our weather pages